Погода в Дубовом

Россия / Еврейская автономная область     48°23′57″N   133°06′46″E
темп.,
°C
ветер,
м/с
пор.,
м/с
влажн.,
%
обл.,
%
осадки,
мм/ч
давл.,
гПа
погр.,
м
13 апреля, вт
вт1301:00+4з4973100 0.6 1005390
04:000зюз4785100 0.8 1003324
07:00−2з5883100 0.2 1003386
10:00−2з5778100 0.9 1002499
13:00+1зсз6765100 0.6 10021050
16:00+3зсз893785 0.6 10021918
19:00−1з8104787 0.0 10031785
22:00−3з81264100 0.0 10031053
14 апреля, ср
ср1401:00−3з8125899 0.0 10021113
04:00−4з7136036 0.0 10031161
07:00−5з7135892 0.0 10041115
10:00−1з8114398 0.0 10051943
13:00+1з71036100 0.0 10042571
16:00+1зсз71040100 0.2 10052403
19:000зсз6105799 0.3 10061482
22:00−2зсз410605 0.3 1008587
15 апреля, чт
чт1501:00−3з410650 0.0 1009464
04:00−3з311610 0.0 1010507
07:00−2зюз39570 0.0 1012382
10:00+2зюз46370 0.0 1013913
13:00+6з463010 0.0 10131884
16:00+7юз232836 0.0 10121741
19:00+7ююв243396 0.0 1013728
22:00+4в384595 0.0 1013188
16 апреля, пт
пт1601:00+3всв41047100 0.1 1013405
04:00+2всв41257100 0.3 1011459
07:00+1всв51266100 0.2 1010461
10:00+5в5851100 0.2 1009619
13:00+11в6937100 0.0 10071254
16:00+12юв61042100 0.0 10041616
19:00+9вюв41058100 0.3 1005873
22:00+7в61170100 1.4 10061172
17 апреля, сб
сб1701:00+6всв5977100 0.2 1005771
04:00+4всв4688100 1.1 1006299
07:00+3ссв2495100 0.2 1007133
10:00+6св348276 0.3 1009445
13:00+10св335766 0.7 10091172
16:00+12ссв434824 1.4 10081510
19:00+10св455733 0.3 10081214
22:00+6св377822 0.3 1009248